Carrollton, GA

4:38 PM EST on November 22, 2019 (GMT -0500)
West Georgia Regional-Gray

Weather History for KCTJ - September, 2019

Change the Weather History Date:

Friday, September 20, 2019

  Actual Average Record
Temperature  
Mean Temperature 70 °F -  
Max Temperature 81 °F 83 °F 95 °F (2010)
Min Temperature 58 °F 59 °F 42 °F (1981)
Cooling Degree Days 4    
Growing Degree Days 20 (Base 50)    
Moisture  
Dew Point 54 °F    
Average Humidity 61    
Maximum Humidity 85    
Minimum Humidity 37    
Precipitation  
Precipitation 0.00 in - - ()
Sea Level Pressure  
Sea Level Pressure 30.30 in    
Wind  
Wind Speed 3 mph (ESE)    
Max Wind Speed 9 mph    
Max Gust Speed -    
Visibility 10 miles    
Events      
Averages and records for this station are not official NWS values.
T = Trace of Precipitation, MM = Missing Value Source: NWS Daily Summary

Daily Weather History Graph

Daily Weather History Graph

Search for Another Location

Airport or City:

Astronomy

Sep. 20, 2019 Rise Set
Actual Time 7:27 AM EDT 7:40 PM EDT
Civil Twilight 7:02 AM EDT 8:05 PM EDT
Nautical Twilight 6:33 AM EDT 8:34 PM EDT
Astronomical Twilight 6:03 AM EDT 9:03 PM EDT
Moon 11:46 PM EDT (9/20) 1:14 PM EDT (9/20)
Length of Visible Light 13h 02m
Length of Day
12h 13m
Waning Gibbous, 65% of the Moon is Illuminated
Sep 20
Waning Gibbous
Sep 21
Last Quarter
Sep 28
New
Oct 5
First Quarter
Oct 13
Full

Hourly Weather History & Observations

Time (EDT) Temp. Heat Index Dew Point Humidity Pressure Visibility Wind Dir Wind Speed Gust Speed Precip Events Conditions
12:15 AM 67.3 °F - 55.4 °F 66% 30.26 in 10.0 mi East 3.5 mph - N/A   Mostly Cloudy
12:35 AM 67.1 °F - 55.4 °F 66% 30.26 in 10.0 mi Calm Calm - N/A   Mostly Cloudy
12:55 AM 66.9 °F - 55.4 °F 66% 30.26 in 10.0 mi Calm Calm - N/A   Mostly Cloudy
1:15 AM 66.4 °F - 55.0 °F 67% 30.26 in 10.0 mi Calm Calm - N/A   Mostly Cloudy
1:35 AM 65.8 °F - 54.9 °F 68% 30.27 in 10.0 mi East 3.5 mph - N/A   Mostly Cloudy
1:55 AM 65.7 °F - 54.7 °F 68% 30.27 in 10.0 mi Calm Calm - N/A   Mostly Cloudy
2:15 AM 65.3 °F - 54.5 °F 68% 30.27 in 10.0 mi Calm Calm - N/A   Scattered Clouds
2:35 AM 65.3 °F - 54.5 °F 68% 30.27 in 10.0 mi East 4.6 mph - N/A   Scattered Clouds
2:55 AM 65.1 °F - 53.8 °F 67% 30.27 in 10.0 mi East 5.8 mph - N/A   Scattered Clouds
3:15 AM 64.6 °F - 53.2 °F 67% 30.27 in 10.0 mi East 4.6 mph - N/A   Clear
3:35 AM 64.4 °F - 52.7 °F 66% 30.27 in 10.0 mi ESE 3.5 mph - N/A   Mostly Cloudy
3:55 AM 64.4 °F - 52.7 °F 66% 30.27 in 10.0 mi East 3.5 mph - N/A   Mostly Cloudy
4:15 AM 63.9 °F - 52.3 °F 66% 30.27 in 10.0 mi East 3.5 mph - N/A   Mostly Cloudy
4:35 AM 63.3 °F - 52.3 °F 67% 30.27 in 10.0 mi ESE 3.5 mph - N/A   Mostly Cloudy
4:55 AM 62.8 °F - 52.7 °F 70% 30.28 in 10.0 mi ESE 3.5 mph - N/A   Scattered Clouds
5:15 AM 62.4 °F - 52.7 °F 70% 30.28 in 10.0 mi Calm Calm - N/A   Scattered Clouds
5:35 AM 61.7 °F - 52.7 °F 72% 30.29 in 10.0 mi Calm Calm - N/A   Clear
5:55 AM 61.2 °F - 53.1 °F 75% 30.29 in 10.0 mi Calm Calm - N/A   Clear
6:15 AM 60.6 °F - 53.2 °F 77% 30.29 in 10.0 mi Calm Calm - N/A   Clear
6:35 AM 59.9 °F - 53.6 °F 80% 30.30 in 10.0 mi Calm Calm - N/A   Clear
6:55 AM 59.7 °F - 53.6 °F 80% 30.30 in 10.0 mi Calm Calm - N/A   Clear
7:15 AM 58.8 °F - 53.6 °F 83% 30.31 in 10.0 mi Calm Calm - N/A   Clear
7:35 AM 58.1 °F - 53.6 °F 85% 30.32 in 10.0 mi Calm Calm - N/A   Clear
7:55 AM 58.3 °F - 53.8 °F 85% 30.33 in 10.0 mi Calm Calm - N/A   Clear
8:15 AM 59.5 °F - 54.1 °F 82% 30.34 in 10.0 mi Calm Calm - N/A   Scattered Clouds
8:35 AM 61.0 °F - 54.3 °F 79% 30.34 in 10.0 mi Calm Calm - N/A   Scattered Clouds
8:55 AM 62.2 °F - 54.3 °F 75% 30.34 in 10.0 mi SE 3.5 mph - N/A   Scattered Clouds
9:15 AM 63.3 °F - 53.6 °F 71% 30.35 in 10.0 mi ESE 4.6 mph - N/A   Scattered Clouds
9:35 AM 64.6 °F - 53.1 °F 66% 30.35 in 10.0 mi ESE 3.5 mph - N/A   Clear
9:55 AM 65.8 °F - 52.9 °F 63% 30.36 in 10.0 mi SE 5.8 mph - N/A   Clear
10:15 AM 67.1 °F - 52.3 °F 59% 30.36 in 10.0 mi SE 6.9 mph - N/A   Clear
10:35 AM 68.7 °F - 51.8 °F 55% 30.37 in 10.0 mi SSE 9.2 mph - N/A   Clear
10:55 AM 69.6 °F - 51.4 °F 52% 30.37 in 10.0 mi SSE 8.1 mph - N/A   Clear
11:15 AM 70.3 °F - 51.1 °F 50% 30.37 in 10.0 mi East 6.9 mph - N/A   Clear
11:35 AM 70.9 °F - 51.6 °F 50% 30.37 in 10.0 mi SE 4.6 mph - N/A   Clear
11:55 AM 71.6 °F - 51.8 °F 50% 30.36 in 10.0 mi SSE 5.8 mph - N/A   Clear
12:15 PM 72.5 °F - 52.0 °F 48% 30.36 in 10.0 mi SE 5.8 mph - N/A   Clear
12:35 PM 73.9 °F - 51.8 °F 46% 30.35 in 10.0 mi East 4.6 mph - N/A   Clear
12:55 PM 74.8 °F - 52.2 °F 45% 30.34 in 10.0 mi ESE 5.8 mph - N/A   Clear
1:15 PM 75.6 °F - 52.5 °F 45% 30.33 in 10.0 mi East 6.9 mph - N/A   Clear
1:35 PM 76.1 °F - 52.7 °F 44% 30.32 in 10.0 mi ESE 6.9 mph - N/A   Clear
1:55 PM 76.8 °F - 53.1 °F 44% 30.31 in 10.0 mi SE 6.9 mph - N/A   Clear
2:15 PM 77.5 °F - 53.4 °F 43% 30.30 in 10.0 mi East 8.1 mph - N/A   Clear
2:35 PM 78.3 °F - 53.1 °F 41% 30.30 in 10.0 mi SE 8.1 mph - N/A   Clear
2:55 PM 78.4 °F - 52.7 °F 41% 30.29 in 10.0 mi SSE 6.9 mph - N/A   Clear
3:15 PM 78.8 °F - 52.7 °F 40% 30.28 in 10.0 mi SSE 3.5 mph - N/A   Clear
3:35 PM 79.3 °F - 52.9 °F 40% 30.27 in 10.0 mi Calm Calm - N/A   Clear
3:55 PM 80.2 °F 80.1 °F 53.6 °F 40% 30.27 in 10.0 mi South 4.6 mph - N/A   Clear
4:15 PM 80.8 °F 80.4 °F 53.4 °F 39% 30.27 in 10.0 mi ESE 4.6 mph - N/A   Clear
4:35 PM 81.3 °F 80.7 °F 53.4 °F 38% 30.26 in 10.0 mi East 6.9 mph - N/A   Clear
4:55 PM 81.1 °F - 52.9 °F 37% 30.26 in 10.0 mi SE 5.8 mph - N/A   Clear
5:15 PM 81.1 °F 80.6 °F 53.2 °F 38% 30.26 in 10.0 mi East 4.6 mph - N/A   Clear
5:35 PM 81.0 °F 80.4 °F 53.4 °F 38% 30.26 in 10.0 mi SE 6.9 mph - N/A   Clear
5:55 PM 80.8 °F 80.3 °F 53.1 °F 38% 30.26 in 10.0 mi East 6.9 mph - N/A   Clear
6:15 PM 80.4 °F 80.1 °F 53.4 °F 39% 30.26 in 10.0 mi ESE 5.8 mph - N/A   Clear
6:35 PM 79.7 °F - 53.6 °F 40% 30.26 in 10.0 mi East 4.6 mph - N/A   Clear
6:55 PM 78.8 °F - 53.6 °F 42% 30.26 in 10.0 mi Calm Calm - N/A   Clear
7:15 PM 77.5 °F - 54.3 °F 44% 30.26 in 10.0 mi Calm Calm - N/A   Clear
7:35 PM 75.2 °F - 55.0 °F 49% 30.26 in 10.0 mi Calm Calm - N/A   Clear
7:55 PM 72.3 °F - 55.8 °F 56% 30.27 in 10.0 mi Calm Calm - N/A   Clear
8:15 PM 69.6 °F - 56.8 °F 64% 30.27 in 10.0 mi Calm Calm - N/A   Clear
8:35 PM 67.8 °F - 56.7 °F 67% 30.27 in 10.0 mi Calm Calm - N/A   Clear
8:55 PM 66.2 °F - 57.2 °F 73% 30.27 in 10.0 mi Calm Calm - N/A   Clear
9:15 PM 64.8 °F - 56.3 °F 74% 30.28 in 10.0 mi Calm Calm - N/A   Clear
9:35 PM 64.2 °F - 55.8 °F 74% 30.29 in 10.0 mi Calm Calm - N/A   Clear
9:55 PM 63.9 °F - 55.4 °F 74% 30.29 in 10.0 mi Calm Calm - N/A   Clear
10:15 PM 62.6 °F - 55.0 °F 76% 30.30 in 10.0 mi Calm Calm - N/A   Clear
10:35 PM 62.1 °F - 54.5 °F 76% 30.30 in 10.0 mi Calm Calm - N/A   Clear
10:55 PM 61.9 °F - 54.5 °F 77% 30.30 in 10.0 mi Calm Calm - N/A   Clear
11:15 PM 61.9 °F - 54.5 °F 77% 30.30 in 10.0 mi Calm Calm - N/A   Clear
11:35 PM 61.2 °F - 54.3 °F 78% 30.31 in 10.0 mi Calm Calm - N/A   Clear
11:55 PM 60.6 °F - 54.5 °F 80% 30.31 in 10.0 mi Calm Calm - N/A   Clear